Erie, PA

6:19 AM EST on December 06, 2019 (GMT -0500)
Erie International

Weather History for KERI - October, 2019

Change the Weather History Date:

Monday, October 21, 2019

  Actual Average Record
Temperature  
Mean Temperature 62 °F 51 °F  
Max Temperature 75 °F 59 °F 82 °F (1979)
Min Temperature 48 °F 44 °F 29 °F (1895)
Degree Days  
Heating Degree Days 4 14  
Month to date heating degree days 160 227  
Since 1 July heating degree days 172 351  
Cooling Degree Days 0 0  
Month to date cooling degree days 22 7  
Year to date cooling degree days 847 636  
Growing Degree Days 12 (Base 50)    
Moisture  
Dew Point 43 °F    
Average Humidity 56    
Maximum Humidity 86    
Minimum Humidity 27    
Precipitation  
Precipitation T in 0.12 in 0.97 in (2016)
Month to date precipitation 1.41 2.84  
Year to date precipitation 31.04 33.28  
Snow  
Snow 0.00 in 0.00 in - ()
Month to date snowfall 0.0 0.0  
Since 1 July snowfall 0.0 0.0  
Since 1 September snowfall 0.0 0.0  
Snow Depth 0.00 in    
Sea Level Pressure  
Sea Level Pressure 29.94 in    
Wind  
Wind Speed 7 mph ()    
Max Wind Speed 25 mph    
Max Gust Speed 36 mph    
Visibility 10.0 miles    
Events      
T = Trace of Precipitation, MM = Missing Value Source: Averaged Metar Reports

Daily Weather History Graph

Daily Weather History Graph

Search for Another Location

Airport or City:

Astronomy

Oct. 21, 2019 Rise Set
Actual Time 7:39 AM EDT 6:30 PM EDT
Civil Twilight 7:11 AM EDT 6:58 PM EDT
Nautical Twilight 6:38 AM EDT 7:31 PM EDT
Astronomical Twilight 6:06 AM EDT 8:03 PM EDT
Moon No Moon Rise 3:00 PM EDT (10/21)
Length of Visible Light 11h 46m
Length of Day
10h 50m
Waning Gibbous, 48% of the Moon is Illuminated
Oct 21
Waning Gibbous
Oct 27
New
Nov 4
First Quarter
Nov 12
Full
Nov 19
Last Quarter

Hourly Weather History & Observations

Time (EDT) Temp. Dew Point Humidity Pressure Visibility Wind Dir Wind Speed Gust Speed Precip Events Conditions
12:51 AM 50.0 °F 45.0 °F 83% 30.00 in 10.0 mi Calm Calm - N/A   Clear
1:51 AM 48.9 °F 44.1 °F 83% 30.00 in 10.0 mi SSW 5.8 mph - N/A   Clear
2:51 AM 51.1 °F 45.0 °F 80% 30.01 in 10.0 mi Calm Calm - N/A   Mostly Cloudy
3:51 AM 50.0 °F 44.1 °F 80% 30.01 in 10.0 mi SSW 4.6 mph - N/A   Clear
4:51 AM 50.0 °F 44.1 °F 80% 30.01 in 10.0 mi Calm Calm - N/A   Clear
5:51 AM 51.1 °F 45.0 °F 80% 30.01 in 10.0 mi SSE 5.8 mph - N/A   Clear
6:51 AM 51.1 °F 45.0 °F 80% 30.02 in 10.0 mi South 9.2 mph - N/A   Clear
7:51 AM 51.1 °F 45.0 °F 80% 30.03 in 10.0 mi East 3.5 mph - N/A   Clear
8:51 AM 55.0 °F 46.9 °F 74% 30.03 in 10.0 mi SE 4.6 mph - N/A   Clear
9:51 AM 61.0 °F 48.0 °F 62% 30.02 in 10.0 mi SSE 9.2 mph - N/A   Clear
10:51 AM 63.0 °F 46.9 °F 56% 30.00 in 10.0 mi SE 15.0 mph - N/A   Clear
11:51 AM 66.9 °F 44.1 °F 44% 29.98 in 10.0 mi SSE 13.8 mph 21.9 mph N/A   Clear
12:51 PM 70.0 °F 41.0 °F 35% 29.94 in 10.0 mi ESE 11.5 mph 25.3 mph N/A   Clear
1:51 PM 73.0 °F 41.0 °F 31% 29.91 in 10.0 mi SSE 16.1 mph 25.3 mph N/A   Clear
2:51 PM 73.9 °F 39.9 °F 29% 29.86 in 10.0 mi SE 19.6 mph 25.3 mph N/A   Clear
3:51 PM 73.9 °F 37.9 °F 27% 29.86 in 10.0 mi SE 11.5 mph 25.3 mph N/A   Clear
4:51 PM 72.0 °F 37.9 °F 29% 29.83 in 10.0 mi SE 16.1 mph 24.2 mph N/A   Clear
5:51 PM 70.0 °F 39.9 °F 33% 29.81 in 10.0 mi SE 12.7 mph 21.9 mph N/A   Mostly Cloudy
6:51 PM 68.0 °F 41.0 °F 37% 29.81 in 10.0 mi SSE 12.7 mph 21.9 mph N/A   Mostly Cloudy
7:51 PM 68.0 °F 42.1 °F 39% 29.79 in 10.0 mi SSE 20.7 mph 31.1 mph N/A   Partly Cloudy
8:51 PM 66.9 °F 42.1 °F 40% 29.78 in 10.0 mi SSE 20.7 mph 28.8 mph N/A   Clear